GW0658 Weather Reports


Display with metric or nautical units.
time (UTC)temp
F
wind
direction
speed
MPH
gust
MPH
rain 1hr
in
rain 24hr
in
rain mn
in
humidity
%
barometer
mb
20260503020517 62 0 0.0 0.0 0.00 0.00 0.00 72 1013.4
20260503020034 62 0 0.0 0.0 0.00 0.00 0.00 72 1013.5
20260503015521 62 0 0.0 0.0 0.00 0.00 0.00 71 1013.5
20260503015018 62 0 0.0 0.0 0.00 0.00 0.00 70 1013.5
20260503014536 63 0 0.0 0.0 0.00 0.00 0.00 71 1013.6
20260503014017 63 0 0.0 0.0 0.00 0.00 0.00 73 1013.5
20260503013519 63 0 0.0 0.0 0.00 0.00 0.00 72 1013.6
20260503013035 63 0 0.0 0.0 0.00 0.00 0.00 68 1013.6
20260503012518 63 0 0.0 0.0 0.00 0.00 0.00 67 1013.6
20260503012017 63 0 0.0 0.0 0.00 0.00 0.00 66 1013.6
20260503011537 63 0 0.0 0.0 0.00 0.00 0.00 66 1013.6
20260503011023 63 0 0.0 0.0 0.00 0.00 0.00 66 1013.6
20260503010517 63 0 0.0 0.0 0.00 0.00 0.00 65 1013.6
20260503010042 64 0 0.0 0.0 0.00 0.00 0.00 66 1013.7
20260503005517 64 0 0.0 0.0 0.00 0.00 0.00 64 1013.7
20260503005021 64 0 0.0 3.0 0.00 0.00 0.00 65 1013.8
20260503004603 64 0 0.0 5.0 0.00 0.00 0.00 64 1013.7
20260503004017 64 0 0.0 5.0 0.00 0.00 0.00 65 1013.8
20260503003519 64 186 2.0 6.0 0.00 0.00 0.00 63 1013.8
20260503003034 65 248 2.0 8.0 0.00 0.00 0.00 64 1013.7
20260503002518 65 209 2.0 8.0 0.00 0.00 0.00 63 1013.7
20260503002018 65 252 1.0 6.0 0.00 0.00 0.00 63 1013.7
20260503001536 65 81 1.0 7.0 0.00 0.00 0.00 64 1013.8
20260503001017 65 253 2.0 7.0 0.00 0.00 0.00 65 1013.9
20260503000517 65 194 3.0 8.0 0.00 0.00 0.00 63 1013.9
20260503000035 66 227 3.0 8.0 0.00 0.00 0.00 62 1014.0
20260502235517 66 113 2.0 7.0 0.00 0.00 0.00 62 1013.9
20260502235018 66 217 3.0 7.0 0.00 0.00 0.00 63 1014.0
20260502234549 66 221 2.0 8.0 0.00 0.00 0.00 64 1014.0
20260502234017 66 237 4.0 8.0 0.00 0.00 0.00 61 1014.0
20260502233521 67 0 3.0 8.0 0.00 0.00 0.00 62 1014.0
20260502233034 67 220 4.0 8.0 0.00 0.00 0.00 62 1014.2
20260502232517 67 255 1.0 6.0 0.00 0.00 0.00 61 1014.0
20260502232017 67 213 3.0 9.0 0.00 0.00 0.00 62 1014.1
20260502231542 67 114 3.0 9.0 0.00 0.00 0.00 62 1014.1
20260502231018 67 248 3.0 7.0 0.00 0.00 0.00 61 1014.2
20260502230517 67 236 3.0 7.0 0.00 0.00 0.00 60 1014.3
20260502230036 67 207 3.0 9.0 0.00 0.00 0.00 60 1014.2
20260502225521 67 237 3.0 9.0 0.00 0.00 0.00 61 1014.3
20260502225016 67 207 3.0 9.0 0.00 0.00 0.00 60 1014.3
20260502224535 67 248 3.0 8.0 0.00 0.00 0.00 58 1014.5
20260502224016 67 205 3.0 8.0 0.00 0.00 0.00 57 1014.4
20260502223518 68 178 3.0 8.0 0.00 0.00 0.00 58 1014.6
20260502223034 68 35 2.0 7.0 0.00 0.00 0.00 58 1014.7
20260502222519 67 224 3.0 7.0 0.00 0.00 0.00 58 1014.9
20260502222021 67 240 3.0 6.0 0.00 0.00 0.00 59 1014.8
20260502221537 67 239 2.0 8.0 0.00 0.00 0.00 59 1014.9
20260502221019 67 186 2.0 10.0 0.00 0.00 0.00 58 1015.1
20260502220518 67 211 2.0 10.0 0.00 0.00 0.00 59 1015.0
20260502220045 67 219 4.0 9.0 0.00 0.00 0.00 58 1015.1
20260502215516 67 242 3.0 8.0 0.00 0.00 0.00 57 1015.1
20260502215017 68 247 2.0 7.0 0.00 0.00 0.00 58 1015.2
20260502214535 68 217 3.0 9.0 0.00 0.00 0.00 59 1015.3
20260502214021 68 202 4.0 13.0 0.00 0.00 0.00 59 1015.3
20260502213518 67 213 4.0 13.0 0.00 0.00 0.00 58 1015.2
20260502213038 68 229 4.0 13.0 0.00 0.00 0.00 58 1015.2
20260502212520 68 227 5.0 10.0 0.00 0.00 0.00 60 1015.4
20260502212020 68 254 4.0 8.0 0.00 0.00 0.00 58 1015.3
20260502211533 68 241 4.0 8.0 0.00 0.00 0.00 58 1015.3
20260502211015 68 237 4.0 8.0 0.00 0.00 0.00 58 1015.4
20260502210518 68 217 3.0 8.0 0.00 0.00 0.00 61 1015.4
20260502210034 67 213 3.0 10.0 0.00 0.00 0.00 62 1015.5
20260502205518 67 242 3.0 10.0 0.00 0.00 0.00 62 1015.4
20260502205019 67 236 4.0 10.0 0.00 0.00 0.00 60 1015.4
20260502204535 67 225 3.0 8.0 0.00 0.00 0.00 60 1015.6
20260502204018 67 240 2.0 9.0 0.00 0.00 0.00 61 1015.6
20260502203521 67 246 2.0 9.0 0.00 0.00 0.00 61 1015.6
20260502203057 67 215 3.0 7.0 0.00 0.00 0.00 60 1015.6
20260502202518 67 25 2.0 7.0 0.00 0.00 0.00 59 1015.6
20260502202018 67 212 2.0 9.0 0.00 0.00 0.00 59 1015.6
20260502201544 67 212 3.0 9.0 0.00 0.00 0.00 61 1015.7
20260502201018 68 239 4.0 9.0 0.00 0.00 0.00 60 1015.7
20260502200518 68 248 2.0 9.0 0.00 0.00 0.00 59 1015.7
20260502200036 67 317 3.0 9.0 0.00 0.00 0.00 58 1015.7
20260502195520 67 202 3.0 7.0 0.00 0.00 0.00 60 1015.7
20260502195019 67 204 3.0 7.0 0.00 0.00 0.00 58 1015.8
20260502194541 67 201 3.0 9.0 0.00 0.00 0.00 59 1015.8
20260502194017 67 232 3.0 9.0 0.00 0.00 0.00 60 1015.7
20260502193520 68 235 4.0 14.0 0.00 0.00 0.00 58 1015.8
20260502193035 68 205 5.0 14.0 0.00 0.00 0.00 59 1015.7
20260502192519 68 231 3.0 10.0 0.00 0.00 0.00 59 1015.8
20260502192017 68 215 4.0 10.0 0.00 0.00 0.00 58 1015.8
20260502191540 68 225 3.0 10.0 0.00 0.00 0.00 61 1015.8
20260502191018 68 233 4.0 9.0 0.00 0.00 0.00 58 1016.0
20260502190518 68 225 4.0 9.0 0.00 0.00 0.00 58 1015.8
20260502190032 68 238 2.0 8.0 0.00 0.00 0.00 58 1015.9
20260502185518 68 203 3.0 8.0 0.00 0.00 0.00 61 1016.0
20260502185019 67 208 4.0 9.0 0.00 0.00 0.00 59 1015.9
20260502184541 67 248 4.0 10.0 0.00 0.00 0.00 59 1016.0
20260502184019 67 130 2.0 10.0 0.00 0.00 0.00 61 1016.0
20260502183522 67 211 3.0 7.0 0.00 0.00 0.00 60 1016.0
20260502183035 67 236 3.0 7.0 0.00 0.00 0.00 61 1016.0
20260502182519 67 225 3.0 7.0 0.00 0.00 0.00 61 1016.0
20260502182017 67 198 2.0 6.0 0.00 0.00 0.00 61 1016.0
20260502181540 67 259 3.0 6.0 0.00 0.00 0.00 60 1016.0
20260502181017 67 220 2.0 7.0 0.00 0.00 0.00 61 1016.0
20260502180518 67 203 3.0 7.0 0.00 0.00 0.00 58 1016.0
20260502170518 67 20 1.0 5.0 0.00 0.00 0.00 56 1015.8
20260502164017 66 157 1.0 12.0 0.00 0.00 0.00 56 1015.6
20260502163517 66 227 3.0 12.0 0.00 0.00 0.00 57 1015.7
20260502163057 65 181 3.0 12.0 0.00 0.00 0.00 55 1015.7
20260502162521 65 248 1.0 6.0 0.00 0.00 0.00 59 1015.7
20260502162024 65 225 3.0 6.0 0.00 0.00 0.00 59 1015.7
20260502161542 64 0 0.0 4.0 0.00 0.00 0.00 62 1015.6
20260502161017 63 0 1.0 4.0 0.00 0.00 0.00 60 1015.5
20260502160518 63 267 0.0 3.0 0.00 0.00 0.00 64 1015.5
20260502152017 58 0 0.0 0.0 0.00 0.00 0.00 71 1015.4
20260502151538 57 0 0.0 0.0 0.00 0.00 0.00 71 1015.4
20260502151017 57 0 0.0 2.0 0.00 0.00 0.00 71 1015.4
20260502150517 57 0 0.0 3.0 0.00 0.00 0.00 70 1015.5
20260502130518 54 0 0.0 0.0 0.00 0.00 0.00 68 1014.7
20260502123518 54 0 0.0 3.0 0.00 0.00 0.00 68 1014.9
20260502123034 54 80 0.0 3.0 0.00 0.00 0.00 68 1014.8
20260502122519 54 75 1.0 3.0 0.00 0.00 0.00 68 1014.8
20260502122019 54 63 1.0 3.0 0.00 0.00 0.00 68 1014.9
20260502121535 54 68 1.0 3.0 0.00 0.00 0.00 68 1014.9
20260502121018 55 74 1.0 3.0 0.00 0.00 0.00 67 1014.9
20260502120516 55 69 1.0 3.0 0.00 0.00 0.00 67 1015.1
20260502115519 55 83 0.0 2.0 0.00 0.00 0.00 65 1015.1
20260502115017 55 0 0.0 2.0 0.00 0.00 0.00 65 1015.2
20260502114547 55 0 0.0 2.0 0.00 0.00 0.00 65 1015.2
20260502114017 56 83 1.0 2.0 0.00 0.00 0.00 65 1015.2
20260502113519 56 79 1.0 3.0 0.00 0.00 0.00 65 1015.2
20260502113039 56 79 1.0 3.0 0.00 0.00 0.00 66 1015.2
20260502112517 56 79 1.0 2.0 0.00 0.00 0.00 67 1015.3
20260502112017 56 79 1.0 2.0 0.00 0.00 0.00 68 1015.3
20260502111536 56 79 0.0 2.0 0.00 0.00 0.00 69 1015.2
20260502111017 56 79 1.0 3.0 0.00 0.00 0.00 71 1015.3
20260502110517 56 79 1.0 3.0 0.00 0.00 0.00 72 1015.3
20260502110035 56 79 1.0 3.0 0.00 0.00 0.00 72 1015.4
20260502105519 56 79 1.0 3.0 0.00 0.00 0.00 72 1015.4
20260502105029 56 79 1.0 3.0 0.00 0.00 0.00 72 1015.4
20260502104535 56 79 1.0 3.0 0.00 0.00 0.00 72 1015.4
20260502104017 56 79 1.0 3.0 0.00 0.00 0.00 72 1015.5
20260502103517 56 79 1.0 3.0 0.00 0.00 0.00 72 1015.4
20260502103037 56 79 1.0 3.0 0.00 0.00 0.00 72 1015.5
20260502102517 56 79 1.0 2.0 0.00 0.00 0.00 72 1015.5
20260502102017 56 0 0.0 0.0 0.00 0.00 0.00 73 1015.5
20260502101533 56 0 0.0 0.0 0.00 0.00 0.00 73 1015.5
20260502101017 56 0 0.0 0.0 0.00 0.00 0.00 74 1015.5
20260502100518 56 0 0.0 0.0 0.00 0.00 0.00 74 1015.5
20260502091533 56 0 0.0 0.0 0.00 0.00 0.00 77 1015.8
20260502091017 56 0 0.0 0.0 0.00 0.00 0.00 77 1015.8
20260502090518 56 0 0.0 0.0 0.00 0.00 0.00 77 1015.9
20260502071019 57 0 0.0 0.0 0.00 0.00 0.00 73 1016.5
20260502070522 57 0 0.0 0.0 0.00 0.00 0.00 73 1016.6
20260502070049 57 0 0.0 0.0 0.00 0.00 0.00 74 1016.7
20260502065519 57 0 0.0 0.0 0.00 0.00 0.00 75 1016.5
20260502065017 57 0 0.0 0.0 0.00 0.00 0.00 75 1016.6
20260502064543 57 0 0.0 0.0 0.00 0.00 0.00 77 1016.6
20260502064020 57 0 0.0 0.0 0.00 0.00 0.00 78 1016.6
20260502063520 57 0 0.0 0.0 0.00 0.00 0.00 77 1016.5
20260502063036 58 0 0.0 0.0 0.00 0.00 0.00 77 1016.6
20260502062518 58 0 0.0 0.0 0.00 0.00 0.00 77 1016.6
20260502062020 58 0 0.0 0.0 0.00 0.00 0.00 77 1016.6
20260502061541 58 0 0.0 0.0 0.00 0.00 0.00 77 1016.6
20260502061021 58 0 0.0 0.0 0.00 0.00 0.00 77 1016.6
20260502060517 58 0 0.0 0.0 0.00 0.00 0.00 78 1016.6
20260502060035 58 0 0.0 0.0 0.00 0.00 0.00 78 1016.6
20260502055517 58 0 0.0 0.0 0.00 0.00 0.00 78 1016.8
20260502055018 58 0 0.0 0.0 0.00 0.00 0.00 78 1016.8
20260502054540 58 0 0.0 0.0 0.00 0.00 0.00 79 1016.8
20260502054019 58 0 0.0 0.0 0.00 0.00 0.00 79 1016.9
20260502053519 57 0 0.0 0.0 0.00 0.00 0.00 79 1016.8
20260502053035 57 0 0.0 0.0 0.00 0.00 0.00 79 1016.9
20260502052517 57 0 0.0 2.0 0.00 0.00 0.00 79 1016.9
20260502052020 57 0 0.0 2.0 0.00 0.00 0.00 79 1016.9
20260502051535 57 0 1.0 3.0 0.00 0.00 0.00 79 1016.8
20260502051016 57 77 1.0 3.0 0.00 0.00 0.00 79 1016.8
20260502050520 57 77 1.0 3.0 0.00 0.00 0.00 79 1016.8
20260502050036 57 77 1.0 3.0 0.00 0.00 0.00 79 1016.8
20260502045520 57 77 1.0 3.0 0.00 0.00 0.00 79 1016.8
20260502045021 57 77 2.0 3.0 0.00 0.00 0.00 79 1016.8
20260502044549 57 0 0.0 2.0 0.00 0.00 0.00 79 1016.7
20260502044017 57 77 1.0 2.0 0.00 0.00 0.00 79 1016.6
20260502043519 57 77 1.0 2.0 0.00 0.00 0.00 79 1016.6
20260502043047 57 77 1.0 2.0 0.00 0.00 0.00 79 1016.6
20260502042519 57 77 1.0 2.0 0.00 0.00 0.00 79 1016.6
20260502042021 58 0 0.0 2.0 0.00 0.00 0.00 79 1016.6
20260502041546 58 0 1.0 2.0 0.00 0.00 0.00 79 1016.5
20260502041022 58 77 1.0 2.0 0.00 0.00 0.00 79 1016.6
20260502040517 58 77 1.0 2.0 0.00 0.00 0.00 78 1016.6
20260502040039 58 77 1.0 2.0 0.00 0.00 0.00 78 1016.5
20260502035519 58 77 1.0 3.0 0.00 0.00 0.00 78 1016.5
20260502035019 58 77 1.0 3.0 0.00 0.00 0.00 78 1016.3
20260502034538 58 77 1.0 2.0 0.00 0.00 0.00 77 1016.3
20260502034024 59 77 1.0 2.0 0.00 0.00 0.00 77 1016.3
20260502033520 59 77 1.0 3.0 0.00 0.00 0.00 76 1016.3
20260502033037 59 77 1.0 3.0 0.00 0.00 0.00 75 1016.2
20260502032519 59 182 1.0 2.0 0.00 0.00 0.00 75 1016.2
20260502032018 60 182 1.0 2.0 0.00 0.00 0.00 74 1016.1
20260502031541 60 181 0.0 2.0 0.00 0.00 0.00 75 1016.1
20260502031019 60 0 0.0 2.0 0.00 0.00 0.00 74 1016.1
20260502030517 60 0 1.0 2.0 0.00 0.00 0.00 74 1016.0
20260502030041 61 227 1.0 2.0 0.00 0.00 0.00 73 1015.9
20260502025520 62 227 0.0 2.0 0.00 0.00 0.00 72 1015.9
20260502025020 62 0 0.0 0.0 0.00 0.00 0.00 71 1016.0
20260502024542 62 0 0.0 0.0 0.00 0.00 0.00 70 1016.0
20260502024020 63 0 0.0 2.0 0.00 0.00 0.00 69 1016.0
20260502023520 63 0 0.0 3.0 0.00 0.00 0.00 67 1016.0
20260502023039 63 227 1.0 3.0 0.00 0.00 0.00 68 1015.9
20260502022520 64 215 2.0 4.0 0.00 0.00 0.00 67 1016.0
20260502022019 64 248 1.0 4.0 0.00 0.00 0.00 65 1015.9
20260502021545 64 0 0.0 0.0 0.00 0.00 0.00 63 1015.8
20260502021019 65 0 0.0 0.0 0.00 0.00 0.00 62 1015.9